GW2918 Weather Reports


time (UTC)temp
F
wind
direction
speed
knots
gust
knots
rain 1hr
in
rain 24hr
in
rain mn
in
humidity
%
barometer
mb
20260505035821 59 154 3.5 10.4 0.00 0.00 0.00 59 1008.5
20260505034820 59 195 4.3 6.1 0.00 0.00 0.00 59 1008.4
20260505033820 60 149 6.1 7.0 0.00 0.00 0.00 58 1008.3
20260505032815 60 178 2.6 8.7 0.00 0.00 0.00 58 1008.3
20260505031813 61 181 2.6 11.3 0.00 0.00 0.00 57 1008.4
20260505030813 61 205 2.6 10.4 0.00 0.00 0.00 56 1008.5
20260505025810 61 176 6.1 9.6 0.00 0.00 0.00 56 1008.3
20260505024806 61 176 6.1 9.6 0.00 0.00 0.00 55 1008.5
20260505023806 62 187 5.2 12.2 0.00 0.00 0.00 55 1008.5
20260505022806 61 198 7.8 10.4 0.00 0.00 0.00 55 1008.8
20260505021806 61 155 1.7 14.8 0.00 0.00 0.00 55 1008.4
20260505020804 61 155 3.5 7.8 0.00 0.00 0.00 56 1008.5
20260505015803 61 180 6.1 9.6 0.00 0.00 0.00 55 1008.4
20260505014803 61 189 5.2 10.4 0.00 0.00 0.00 55 1008.5
20260505013802 62 176 3.5 11.3 0.00 0.00 0.00 55 1008.4
20260505012758 62 188 5.2 13.0 0.00 0.00 0.00 55 1008.5
20260505011757 62 186 5.2 7.0 0.00 0.00 0.00 54 1008.5
20260505010756 62 166 4.3 8.7 0.00 0.00 0.00 53 1008.4
20260505005754 62 152 3.5 9.6 0.00 0.00 0.00 52 1007.9
20260505004754 62 186 5.2 11.3 0.00 0.00 0.00 51 1008.0
20260505003754 63 164 3.5 13.9 0.00 0.00 0.00 50 1007.9
20260505002753 64 192 3.5 15.6 0.00 0.00 0.00 49 1007.8
20260505001748 64 188 5.2 16.5 0.00 0.00 0.00 49 1007.7
20260505000748 64 161 3.5 10.4 0.00 0.00 0.00 49 1007.5
20260504235748 64 191 3.5 13.9 0.00 0.00 0.00 49 1007.5
20260504234748 64 159 4.3 13.0 0.00 0.00 0.00 48 1007.6
20260504233747 64 167 5.2 11.3 0.00 0.00 0.00 48 1007.3
20260504232746 65 200 5.2 13.0 0.00 0.00 0.00 47 1007.4
20260504231745 65 172 4.3 11.3 0.00 0.00 0.00 46 1007.5
20260504230744 66 142 7.0 7.8 0.00 0.00 0.00 46 1007.4
20260504225741 66 163 3.5 13.0 0.00 0.00 0.00 46 1007.4
20260504224740 67 160 2.6 7.8 0.00 0.00 0.00 46 1007.1
20260504223739 67 184 6.1 14.8 0.00 0.00 0.00 44 1007.2
20260504222738 67 191 7.0 9.6 0.00 0.00 0.00 45 1007.0
20260504221738 67 192 5.2 12.2 0.00 0.00 0.00 45 1007.1
20260504220737 68 182 4.3 5.2 0.00 0.00 0.00 45 1007.1
20260504215737 67 157 2.6 12.2 0.00 0.00 0.00 45 1007.3
20260504214735 68 183 3.5 8.7 0.00 0.00 0.00 44 1007.3
20260504213735 68 201 5.2 11.3 0.00 0.00 0.00 43 1007.2
20260504212734 68 173 3.5 12.2 0.00 0.00 0.00 43 1007.3
20260504211734 67 173 3.5 12.2 0.00 0.00 0.00 43 1007.3
20260504210734 67 197 3.5 9.6 0.00 0.00 0.00 44 1007.5
20260504205733 68 162 5.2 6.1 0.00 0.00 0.00 44 1007.4
20260504204729 67 190 7.0 11.3 0.00 0.00 0.00 45 1007.6
20260504203726 65 174 3.5 13.9 0.00 0.00 0.00 46 1007.7
20260504202723 66 215 9.6 13.0 0.00 0.00 0.00 46 1008.1
20260504201723 66 164 2.6 13.9 0.00 0.00 0.00 47 1008.0
20260504200718 66 163 3.5 9.6 0.00 0.00 0.00 47 1008.3
20260504195716 67 214 7.8 10.4 0.00 0.00 0.00 45 1008.4
20260504194715 66 232 5.2 20.9 0.00 0.00 0.00 46 1008.6
20260504193714 66 207 11.3 16.5 0.00 0.00 0.00 44 1008.7
20260504192710 65 187 1.7 13.9 0.00 0.00 0.00 46 1008.6
20260504191706 68 205 3.5 11.3 0.00 0.00 0.00 43 1008.8
20260504190703 66 204 7.0 11.3 0.00 0.00 0.00 47 1009.0
20260504185702 65 206 9.6 12.2 0.00 0.00 0.00 47 1009.0
20260504184701 65 139 11.3 15.6 0.00 0.00 0.00 48 1008.9
20260504183659 66 208 2.6 13.9 0.00 0.00 0.00 47 1009.0
20260504182654 66 187 2.6 11.3 0.00 0.00 0.00 47 1009.1
20260504181649 66 233 8.7 15.6 0.00 0.00 0.00 44 1009.2
20260504180645 68 175 5.2 6.1 0.00 0.00 0.00 43 1009.4
20260504175640 64 206 11.3 13.9 0.00 0.00 0.00 46 1009.3
20260504174635 63 152 7.8 13.0 0.00 0.00 0.00 46 1009.4
20260504173634 65 198 4.3 14.8 0.00 0.00 0.00 51 1009.7
20260504172634 64 203 6.1 10.4 0.00 0.00 0.00 45 1009.8
20260504171633 64 305 5.2 11.3 0.00 0.00 0.00 48 1009.6
20260504170632 64 195 2.6 13.9 0.00 0.00 0.00 52 1009.9
20260504150612 58 199 7.8 16.5 0.00 0.00 0.00 50 1011.1
20260504140603 54 230 8.7 14.8 0.00 0.00 0.00 51 1011.3
20260504130550 53 184 8.7 10.4 0.00 0.00 0.00 52 1011.7
20260504110531 46 192 4.3 10.4 0.00 0.00 0.00 59 1011.8
20260504100516 44 202 1.7 3.5 0.00 0.00 0.00 62 1011.8
20260504081454 43 88 1.7 2.6 0.00 0.00 0.00 64 1011.9
20260504080452 43 88 2.6 2.6 0.00 0.00 0.00 64 1012.0
20260504050421 45 143 2.6 6.1 0.00 0.00 0.00 60 1012.1
20260504045419 45 217 1.7 4.3 0.00 0.00 0.00 60 1012.1
20260504044419 45 128 1.7 2.6 0.00 0.00 0.00 59 1012.4
20260504043419 45 238 1.7 3.5 0.00 0.00 0.00 58 1012.3
20260504042419 45 213 1.7 4.3 0.00 0.00 0.00 59 1012.1
20260504041418 45 173 0.9 1.7 0.00 0.00 0.00 59 1012.1
20260504040412 45 202 5.2 6.1 0.00 0.00 0.00 57 1012.3